| time (UTC) | temp F | wind direction | speed knots | gust knots | rain 1hr in | rain 24hr in | rain mn in | humidity % | barometer mb |
| 20260505122323 | 52 | 313 | 0.0 | 0.0 | 0.00 | 0.00 | 0.00 | 98 | 1016.9 |
| 20260505121820 | 52 | 311 | 0.0 | 0.0 | 0.00 | 0.00 | 0.00 | 98 | 1017.0 |
| 20260505121317 | 52 | 311 | 0.0 | 0.0 | 0.00 | 0.00 | 0.00 | 97 | 1016.9 |
| 20260505120813 | 52 | 312 | 0.0 | 0.0 | 0.00 | 0.00 | 0.00 | 97 | 1017.0 |
| 20260505120309 | 52 | 312 | 0.0 | 0.0 | 0.00 | 0.00 | 0.00 | 97 | 1016.8 |
| 20260505115808 | 52 | 312 | 0.0 | 0.0 | 0.00 | 0.00 | 0.00 | 97 | 1016.8 |
| 20260505115305 | 52 | 298 | 0.0 | 0.0 | 0.00 | 0.00 | 0.00 | 97 | 1016.8 |
| 20260505114803 | 52 | 331 | 0.0 | 0.0 | 0.00 | 0.00 | 0.00 | 96 | 1016.8 |
| 20260505114259 | 52 | 331 | 0.0 | 0.0 | 0.00 | 0.00 | 0.00 | 96 | 1016.7 |
| 20260505113756 | 52 | 332 | 0.0 | 0.0 | 0.00 | 0.00 | 0.00 | 96 | 1016.9 |
| 20260505113252 | 52 | 314 | 0.9 | 1.7 | 0.00 | 0.00 | 0.00 | 96 | 1016.8 |
| 20260505112748 | 52 | 310 | 0.0 | 0.0 | 0.00 | 0.00 | 0.00 | 96 | 1016.8 |
| 20260505112247 | 52 | 306 | 0.0 | 1.7 | 0.00 | 0.00 | 0.00 | 96 | 1016.8 |
| 20260505111746 | 52 | 332 | 0.0 | 0.0 | 0.00 | 0.00 | 0.00 | 95 | 1016.8 |
| 20260505111242 | 52 | 333 | 0.0 | 0.0 | 0.00 | 0.00 | 0.00 | 95 | 1016.7 |
| 20260505110738 | 52 | 332 | 1.7 | 1.7 | 0.00 | 0.00 | 0.00 | 95 | 1016.7 |
| 20260505110236 | 52 | 329 | 0.9 | 1.7 | 0.00 | 0.00 | 0.00 | 95 | 1016.7 |
| 20260505102211 | 52 | 326 | 0.0 | 0.0 | 0.00 | 0.00 | 0.00 | 95 | 1016.4 |
| 20260505101710 | 52 | 314 | 1.7 | 1.7 | 0.00 | 0.00 | 0.00 | 95 | 1016.5 |
| 20260505101206 | 52 | 351 | 5.2 | 6.1 | 0.00 | 0.00 | 0.00 | 95 | 1016.4 |
| 20260505100702 | 52 | 325 | 0.0 | 0.0 | 0.00 | 0.00 | 0.00 | 96 | 1016.3 |
| 20260505100159 | 52 | 322 | 2.6 | 4.3 | 0.00 | 0.00 | 0.00 | 97 | 1016.4 |
| 20260505095655 | 51 | 311 | 1.7 | 2.6 | 0.00 | 0.00 | 0.00 | 98 | 1016.3 |
| 20260505095153 | 51 | 306 | 0.0 | 0.0 | 0.00 | 0.00 | 0.00 | 98 | 1016.3 |
| 20260505094648 | 51 | 310 | 0.0 | 0.0 | 0.00 | 0.00 | 0.00 | 98 | 1016.3 |
| 20260505094145 | 51 | 310 | 0.0 | 0.0 | 0.00 | 0.00 | 0.00 | 98 | 1016.3 |
| 20260505093641 | 51 | 310 | 0.0 | 0.0 | 0.00 | 0.00 | 0.00 | 98 | 1016.0 |
| 20260505093139 | 51 | 310 | 0.0 | 0.0 | 0.00 | 0.00 | 0.00 | 98 | 1016.1 |
| 20260505092636 | 50 | 310 | 0.0 | 0.0 | 0.00 | 0.00 | 0.00 | 98 | 1015.9 |
| 20260505092135 | 50 | 310 | 0.0 | 0.0 | 0.00 | 0.00 | 0.00 | 98 | 1015.9 |
| 20260505091631 | 50 | 311 | 0.0 | 1.7 | 0.00 | 0.00 | 0.00 | 98 | 1015.8 |
| 20260505091129 | 50 | 311 | 0.0 | 0.0 | 0.00 | 0.00 | 0.00 | 98 | 1015.8 |
| 20260505090627 | 50 | 311 | 0.0 | 0.0 | 0.00 | 0.00 | 0.00 | 97 | 1015.8 |
| 20260505090125 | 50 | 311 | 0.0 | 0.0 | 0.00 | 0.00 | 0.00 | 97 | 1015.9 |
| 20260505085622 | 50 | 311 | 0.0 | 0.0 | 0.00 | 0.00 | 0.00 | 96 | 1016.0 |
| 20260505085120 | 51 | 311 | 0.0 | 1.7 | 0.00 | 0.00 | 0.00 | 96 | 1015.9 |
| 20260505084617 | 51 | 309 | 0.0 | 0.0 | 0.00 | 0.00 | 0.00 | 97 | 1016.0 |
| 20260505084116 | 51 | 310 | 0.0 | 0.0 | 0.00 | 0.00 | 0.00 | 96 | 1015.8 |
| 20260505083613 | 51 | 310 | 0.0 | 0.0 | 0.00 | 0.00 | 0.00 | 96 | 1015.9 |
| 20260505083109 | 51 | 311 | 0.0 | 0.0 | 0.00 | 0.00 | 0.00 | 96 | 1015.9 |
| 20260505082605 | 51 | 311 | 0.0 | 0.0 | 0.00 | 0.00 | 0.00 | 96 | 1015.8 |
| 20260505082102 | 51 | 311 | 0.0 | 0.0 | 0.00 | 0.00 | 0.00 | 95 | 1015.7 |
| 20260505081558 | 51 | 310 | 0.0 | 0.0 | 0.00 | 0.00 | 0.00 | 95 | 1015.8 |
| 20260505081055 | 51 | 311 | 0.0 | 0.0 | 0.00 | 0.00 | 0.00 | 95 | 1015.7 |
| 20260505080551 | 52 | 311 | 0.0 | 0.0 | 0.00 | 0.00 | 0.00 | 95 | 1015.7 |
| 20260505080049 | 52 | 311 | 0.0 | 0.0 | 0.00 | 0.00 | 0.00 | 95 | 1015.8 |
| 20260505075544 | 52 | 311 | 0.0 | 0.0 | 0.00 | 0.00 | 0.00 | 95 | 1015.7 |
| 20260505075041 | 52 | 311 | 0.0 | 0.0 | 0.00 | 0.00 | 0.00 | 94 | 1015.7 |
| 20260505074538 | 52 | 311 | 0.0 | 0.0 | 0.00 | 0.00 | 0.00 | 94 | 1015.6 |
| 20260505074036 | 52 | 311 | 0.0 | 0.0 | 0.00 | 0.00 | 0.00 | 94 | 1015.5 |
| 20260505073533 | 52 | 311 | 0.0 | 0.0 | 0.00 | 0.00 | 0.00 | 93 | 1015.6 |
| 20260505073032 | 53 | 311 | 0.0 | 0.0 | 0.00 | 0.00 | 0.00 | 92 | 1015.3 |
| 20260505072526 | 53 | 311 | 0.0 | 0.0 | 0.00 | 0.00 | 0.00 | 92 | 1015.6 |
| 20260505072023 | 53 | 311 | 0.0 | 0.0 | 0.00 | 0.00 | 0.00 | 92 | 1015.3 |
| 20260505071518 | 53 | 311 | 0.0 | 0.0 | 0.00 | 0.00 | 0.00 | 91 | 1015.3 |
| 20260505071017 | 54 | 311 | 0.0 | 0.0 | 0.00 | 0.00 | 0.00 | 91 | 1015.3 |
| 20260505070514 | 54 | 311 | 0.0 | 0.0 | 0.00 | 0.00 | 0.00 | 90 | 1015.1 |
| 20260505070010 | 54 | 320 | 0.0 | 0.0 | 0.00 | 0.00 | 0.00 | 89 | 1015.2 |
| 20260505065506 | 55 | 321 | 0.0 | 0.0 | 0.00 | 0.00 | 0.00 | 89 | 1015.3 |
| 20260505065003 | 55 | 324 | 0.9 | 1.7 | 0.00 | 0.00 | 0.00 | 89 | 1014.9 |
| 20260505064459 | 55 | 324 | 0.0 | 1.7 | 0.00 | 0.00 | 0.00 | 89 | 1015.0 |
| 20260505063958 | 55 | 287 | 1.7 | 1.7 | 0.00 | 0.00 | 0.00 | 89 | 1014.6 |
| 20260505063454 | 55 | 330 | 0.9 | 1.7 | 0.00 | 0.00 | 0.00 | 88 | 1015.0 |
| 20260505062950 | 55 | 331 | 1.7 | 1.7 | 0.00 | 0.00 | 0.00 | 88 | 1014.9 |
| 20260505062448 | 55 | 317 | 0.0 | 0.0 | 0.00 | 0.00 | 0.00 | 87 | 1014.7 |
| 20260505061944 | 56 | 318 | 0.0 | 0.0 | 0.00 | 0.00 | 0.00 | 86 | 1014.7 |
| 20260505061443 | 56 | 318 | 0.0 | 0.0 | 0.00 | 0.00 | 0.00 | 85 | 1014.7 |
| 20260505060940 | 57 | 318 | 0.0 | 0.0 | 0.00 | 0.00 | 0.00 | 84 | 1014.6 |
| 20260505060437 | 57 | 328 | 0.9 | 1.7 | 0.00 | 0.00 | 0.00 | 84 | 1014.6 |
| 20260505055933 | 57 | 321 | 1.7 | 1.7 | 0.00 | 0.00 | 0.00 | 84 | 1014.5 |
| 20260505055429 | 58 | 320 | 1.7 | 2.6 | 0.00 | 0.00 | 0.00 | 83 | 1014.4 |
| 20260505054926 | 58 | 336 | 0.0 | 1.7 | 0.00 | 0.00 | 0.00 | 83 | 1014.4 |
| 20260505054423 | 58 | 333 | 0.0 | 1.7 | 0.00 | 0.00 | 0.00 | 84 | 1014.4 |
| 20260505053921 | 58 | 329 | 0.0 | 0.0 | 0.00 | 0.00 | 0.00 | 83 | 1014.4 |
| 20260505053418 | 58 | 319 | 0.0 | 0.0 | 0.00 | 0.00 | 0.00 | 82 | 1014.4 |
| 20260505052915 | 58 | 320 | 0.9 | 1.7 | 0.00 | 0.00 | 0.00 | 82 | 1014.4 |
| 20260505052412 | 58 | 326 | 0.0 | 0.0 | 0.00 | 0.00 | 0.00 | 83 | 1014.5 |
| 20260505051909 | 58 | 327 | 0.0 | 0.0 | 0.00 | 0.00 | 0.00 | 82 | 1014.4 |
| 20260505051406 | 59 | 328 | 0.0 | 0.0 | 0.00 | 0.00 | 0.00 | 82 | 1014.3 |
| 20260505050904 | 59 | 313 | 0.0 | 0.0 | 0.00 | 0.00 | 0.00 | 81 | 1014.3 |
| 20260505050402 | 60 | 313 | 0.9 | 1.7 | 0.00 | 0.00 | 0.00 | 80 | 1014.3 |
| 20260505041330 | 63 | 308 | 0.0 | 0.0 | 0.00 | 0.00 | 0.00 | 73 | 1013.5 |
| 20260505040827 | 63 | 321 | 0.0 | 0.0 | 0.00 | 0.00 | 0.00 | 72 | 1013.6 |
| 20260505040325 | 64 | 322 | 0.0 | 0.0 | 0.00 | 0.00 | 0.00 | 71 | 1013.6 |
| 20260505035821 | 64 | 327 | 1.7 | 2.6 | 0.00 | 0.00 | 0.00 | 70 | 1013.5 |
| 20260505035316 | 64 | 335 | 0.9 | 1.7 | 0.00 | 0.00 | 0.00 | 69 | 1013.6 |
| 20260505034814 | 65 | 334 | 2.6 | 4.3 | 0.00 | 0.00 | 0.00 | 70 | 1013.5 |
| 20260505034311 | 66 | 330 | 1.7 | 2.6 | 0.00 | 0.00 | 0.00 | 69 | 1013.2 |
| 20260505033808 | 66 | 351 | 4.3 | 6.1 | 0.00 | 0.00 | 0.00 | 68 | 1013.1 |
| 20260505033305 | 67 | 335 | 3.5 | 4.3 | 0.00 | 0.00 | 0.00 | 67 | 1013.1 |
| 20260505032803 | 68 | 341 | 1.7 | 2.6 | 0.00 | 0.00 | 0.00 | 65 | 1013.1 |
| 20260505032254 | 68 | 337 | 2.6 | 2.6 | 0.00 | 0.00 | 0.00 | 64 | 1012.9 |
| 20260505031751 | 69 | 347 | 2.6 | 2.6 | 0.00 | 0.00 | 0.00 | 65 | 1012.7 |
| 20260505031247 | 69 | 322 | 1.7 | 2.6 | 0.00 | 0.00 | 0.00 | 64 | 1012.8 |
| 20260505030744 | 70 | 342 | 1.7 | 2.6 | 0.00 | 0.00 | 0.00 | 63 | 1012.8 |
| 20260505030240 | 71 | 327 | 1.7 | 4.3 | 0.00 | 0.00 | 0.00 | 62 | 1012.6 |
| 20260505025736 | 71 | 333 | 0.9 | 1.7 | 0.00 | 0.00 | 0.00 | 62 | 1012.4 |
| 20260505025234 | 72 | 330 | 0.0 | 0.0 | 0.00 | 0.00 | 0.00 | 59 | 1012.5 |
| 20260505024732 | 72 | 322 | 0.9 | 1.7 | 0.00 | 0.00 | 0.00 | 58 | 1012.3 |
| 20260505024229 | 73 | 335 | 0.9 | 1.7 | 0.00 | 0.00 | 0.00 | 57 | 1012.5 |
| 20260505023727 | 73 | 347 | 4.3 | 4.3 | 0.00 | 0.00 | 0.00 | 57 | 1012.2 |
| 20260505023224 | 73 | 59 | 4.3 | 6.1 | 0.00 | 0.00 | 0.00 | 56 | 1012.2 |
| 20260505022721 | 74 | 333 | 1.7 | 2.6 | 0.00 | 0.00 | 0.00 | 56 | 1012.2 |
| 20260505022218 | 74 | 335 | 2.6 | 4.3 | 0.00 | 0.00 | 0.00 | 55 | 1012.4 |
| 20260505021714 | 74 | 67 | 5.2 | 7.8 | 0.00 | 0.00 | 0.00 | 54 | 1012.2 |
| 20260505021212 | 75 | 306 | 2.6 | 4.3 | 0.00 | 0.00 | 0.00 | 54 | 1012.3 |
| 20260505020707 | 76 | 332 | 1.7 | 4.3 | 0.00 | 0.00 | 0.00 | 53 | 1012.2 |
| 20260505020203 | 76 | 1 | 4.3 | 6.1 | 0.00 | 0.00 | 0.00 | 52 | 1012.2 |
| 20260505015700 | 76 | 49 | 4.3 | 6.1 | 0.00 | 0.00 | 0.00 | 51 | 1012.2 |
| 20260505015156 | 77 | 352 | 3.5 | 4.3 | 0.00 | 0.00 | 0.00 | 49 | 1012.1 |
| 20260505014654 | 78 | 322 | 1.7 | 2.6 | 0.00 | 0.00 | 0.00 | 48 | 1012.1 |
| 20260505014150 | 78 | 47 | 5.2 | 6.1 | 0.00 | 0.00 | 0.00 | 45 | 1012.3 |
| 20260505013648 | 77 | 359 | 2.6 | 2.6 | 0.00 | 0.00 | 0.00 | 47 | 1012.0 |
| 20260505013144 | 78 | 329 | 2.6 | 4.3 | 0.00 | 0.00 | 0.00 | 46 | 1012.2 |
| 20260505012643 | 78 | 64 | 9.6 | 13.0 | 0.00 | 0.00 | 0.00 | 45 | 1012.2 |
| 20260505012140 | 78 | 5 | 2.6 | 4.3 | 0.00 | 0.00 | 0.00 | 44 | 1011.9 |
| 20260505011635 | 79 | 303 | 2.6 | 2.6 | 0.00 | 0.00 | 0.00 | 42 | 1012.2 |
| 20260505011133 | 79 | 350 | 2.6 | 4.3 | 0.00 | 0.00 | 0.00 | 41 | 1012.1 |
| 20260505010628 | 80 | 338 | 5.2 | 7.8 | 0.00 | 0.00 | 0.00 | 41 | 1012.3 |
| 20260505010125 | 79 | 314 | 2.6 | 2.6 | 0.00 | 0.00 | 0.00 | 39 | 1012.2 |
| 20260505005621 | 79 | 0 | 1.7 | 2.6 | 0.00 | 0.00 | 0.00 | 39 | 1012.2 |
| 20260505005118 | 80 | 352 | 4.3 | 6.1 | 0.00 | 0.00 | 0.00 | 40 | 1012.3 |
| 20260505004615 | 80 | 22 | 3.5 | 4.3 | 0.00 | 0.00 | 0.00 | 42 | 1012.4 |
| 20260505004112 | 80 | 341 | 2.6 | 4.3 | 0.00 | 0.00 | 0.00 | 41 | 1012.3 |
| 20260505003609 | 80 | 59 | 3.5 | 6.1 | 0.00 | 0.00 | 0.00 | 44 | 1012.1 |
| 20260505003106 | 80 | 7 | 5.2 | 6.1 | 0.00 | 0.00 | 0.00 | 44 | 1012.2 |
| 20260505002601 | 80 | 345 | 3.5 | 6.1 | 0.00 | 0.00 | 0.00 | 45 | 1012.1 |
| 20260505002055 | 80 | 343 | 1.7 | 2.6 | 0.00 | 0.00 | 0.00 | 45 | 1012.2 |
| 20260505001552 | 80 | 314 | 2.6 | 4.3 | 0.00 | 0.00 | 0.00 | 42 | 1012.2 |
| 20260505001049 | 81 | 324 | 1.7 | 2.6 | 0.00 | 0.00 | 0.00 | 44 | 1012.3 |
| 20260505000546 | 81 | 321 | 2.6 | 4.3 | 0.00 | 0.00 | 0.00 | 42 | 1012.2 |
| 20260505000044 | 82 | 311 | 0.9 | 1.7 | 0.00 | 0.00 | 0.00 | 40 | 1012.2 |
| 20260504235540 | 81 | 5 | 2.6 | 4.3 | 0.00 | 0.00 | 0.00 | 43 | 1012.2 |
| 20260504235037 | 81 | 322 | 0.0 | 0.0 | 0.00 | 0.00 | 0.00 | 44 | 1012.4 |
| 20260504234534 | 81 | 345 | 3.5 | 4.3 | 0.00 | 0.00 | 0.00 | 42 | 1012.3 |
| 20260504234031 | 80 | 325 | 3.5 | 4.3 | 0.00 | 0.00 | 0.00 | 45 | 1012.4 |
| 20260504233526 | 80 | 10 | 2.6 | 4.3 | 0.00 | 0.00 | 0.00 | 44 | 1012.4 |
| 20260504233024 | 80 | 333 | 6.1 | 7.8 | 0.00 | 0.00 | 0.00 | 41 | 1012.5 |
| 20260504232521 | 80 | 317 | 2.6 | 4.3 | 0.00 | 0.00 | 0.00 | 44 | 1012.3 |
| 20260504232018 | 80 | 52 | 3.5 | 6.1 | 0.00 | 0.00 | 0.00 | 46 | 1012.1 |
| 20260504231515 | 81 | 332 | 0.9 | 1.7 | 0.00 | 0.00 | 0.00 | 42 | 1012.3 |
| 20260504231011 | 81 | 339 | 1.7 | 2.6 | 0.00 | 0.00 | 0.00 | 41 | 1012.4 |
| 20260504230508 | 80 | 328 | 0.9 | 2.6 | 0.00 | 0.00 | 0.00 | 39 | 1012.5 |
| 20260504230007 | 81 | 299 | 0.9 | 1.7 | 0.00 | 0.00 | 0.00 | 42 | 1012.6 |
| 20260504225503 | 80 | 331 | 2.6 | 4.3 | 0.00 | 0.00 | 0.00 | 43 | 1012.6 |
| 20260504225000 | 79 | 328 | 2.6 | 2.6 | 0.00 | 0.00 | 0.00 | 47 | 1012.4 |
| 20260504224456 | 80 | 57 | 4.3 | 6.1 | 0.00 | 0.00 | 0.00 | 43 | 1012.6 |
| 20260504223953 | 80 | 73 | 5.2 | 6.1 | 0.00 | 0.00 | 0.00 | 43 | 1012.7 |
| 20260504223450 | 80 | 339 | 1.7 | 1.7 | 0.00 | 0.00 | 0.00 | 38 | 1012.7 |
| 20260504222945 | 80 | 11 | 2.6 | 2.6 | 0.00 | 0.00 | 0.00 | 39 | 1012.7 |
| 20260504222443 | 80 | 309 | 0.0 | 0.0 | 0.00 | 0.00 | 0.00 | 37 | 1012.7 |
| 20260504221941 | 80 | 308 | 3.5 | 6.1 | 0.00 | 0.00 | 0.00 | 39 | 1012.6 |
| 20260504221438 | 80 | 340 | 1.7 | 2.6 | 0.00 | 0.00 | 0.00 | 40 | 1012.9 |
| 20260504220934 | 79 | 323 | 0.9 | 1.7 | 0.00 | 0.00 | 0.00 | 45 | 1012.8 |
| 20260504220431 | 79 | 323 | 3.5 | 7.8 | 0.00 | 0.00 | 0.00 | 42 | 1013.0 |
| 20260504215928 | 80 | 333 | 2.6 | 2.6 | 0.00 | 0.00 | 0.00 | 39 | 1013.0 |
| 20260504215425 | 79 | 318 | 1.7 | 1.7 | 0.00 | 0.00 | 0.00 | 40 | 1012.9 |
| 20260504214921 | 79 | 344 | 3.5 | 6.1 | 0.00 | 0.00 | 0.00 | 40 | 1013.1 |
| 20260504214418 | 80 | 357 | 4.3 | 6.1 | 0.00 | 0.00 | 0.00 | 42 | 1013.0 |
| 20260504213915 | 80 | 13 | 2.6 | 2.6 | 0.00 | 0.00 | 0.00 | 43 | 1013.1 |
| 20260504213410 | 80 | 52 | 5.2 | 8.7 | 0.00 | 0.00 | 0.00 | 44 | 1013.2 |
| 20260504212909 | 79 | 61 | 6.1 | 7.8 | 0.00 | 0.00 | 0.00 | 43 | 1013.2 |
| 20260504212404 | 79 | 342 | 2.6 | 2.6 | 0.00 | 0.00 | 0.00 | 41 | 1013.2 |
| 20260504211902 | 78 | 16 | 1.7 | 2.6 | 0.00 | 0.00 | 0.00 | 42 | 1013.3 |
| 20260504211358 | 79 | 339 | 2.6 | 4.3 | 0.00 | 0.00 | 0.00 | 45 | 1013.1 |
| 20260504210855 | 78 | 6 | 4.3 | 6.1 | 0.00 | 0.00 | 0.00 | 46 | 1013.2 |
| 20260504210352 | 78 | 335 | 3.5 | 6.1 | 0.00 | 0.00 | 0.00 | 47 | 1013.4 |
| 20260504205849 | 78 | 307 | 2.6 | 2.6 | 0.00 | 0.00 | 0.00 | 48 | 1013.2 |
| 20260504205347 | 79 | 115 | 6.1 | 7.8 | 0.00 | 0.00 | 0.00 | 48 | 1012.9 |
| 20260504204845 | 79 | 297 | 2.6 | 4.3 | 0.00 | 0.00 | 0.00 | 48 | 1013.2 |
| 20260504204343 | 78 | 351 | 0.9 | 2.6 | 0.00 | 0.00 | 0.00 | 47 | 1013.1 |
| 20260504203842 | 78 | 315 | 1.7 | 1.7 | 0.00 | 0.00 | 0.00 | 43 | 1013.3 |
| 20260504203339 | 77 | 323 | 1.7 | 2.6 | 0.00 | 0.00 | 0.00 | 50 | 1013.1 |
| 20260504202834 | 78 | 277 | 2.6 | 2.6 | 0.00 | 0.00 | 0.00 | 48 | 1013.3 |
| 20260504202332 | 78 | 295 | 0.9 | 1.7 | 0.00 | 0.00 | 0.00 | 46 | 1013.2 |
| 20260504201828 | 78 | 350 | 2.6 | 2.6 | 0.00 | 0.00 | 0.00 | 44 | 1013.3 |
| 20260504201326 | 78 | 8 | 3.5 | 6.1 | 0.00 | 0.00 | 0.00 | 46 | 1013.2 |
| 20260504200823 | 77 | 317 | 0.9 | 2.6 | 0.00 | 0.00 | 0.00 | 45 | 1013.3 |
| 20260504200320 | 77 | 35 | 6.1 | 7.8 | 0.00 | 0.00 | 0.00 | 45 | 1013.3 |
| 20260504195816 | 77 | 341 | 4.3 | 6.1 | 0.00 | 0.00 | 0.00 | 47 | 1013.3 |
| 20260504195312 | 76 | 200 | 3.5 | 4.3 | 0.00 | 0.00 | 0.00 | 48 | 1013.6 |
| 20260504194809 | 76 | 41 | 4.3 | 6.1 | 0.00 | 0.00 | 0.00 | 47 | 1013.4 |
| 20260504194305 | 76 | 335 | 4.3 | 6.1 | 0.00 | 0.00 | 0.00 | 48 | 1013.5 |
| 20260504193801 | 75 | 321 | 4.3 | 6.1 | 0.00 | 0.00 | 0.00 | 48 | 1013.4 |
| 20260504193259 | 76 | 187 | 2.6 | 6.1 | 0.00 | 0.00 | 0.00 | 47 | 1013.6 |
| 20260504192757 | 76 | 321 | 0.9 | 1.7 | 0.00 | 0.00 | 0.00 | 48 | 1013.4 |
| 20260504192254 | 76 | 322 | 2.6 | 2.6 | 0.00 | 0.00 | 0.00 | 50 | 1013.6 |
| 20260504191753 | 77 | 319 | 2.6 | 2.6 | 0.00 | 0.00 | 0.00 | 44 | 1013.5 |
| 20260504191250 | 77 | 300 | 0.9 | 1.7 | 0.00 | 0.00 | 0.00 | 50 | 1013.4 |
| 20260504190745 | 77 | 326 | 0.9 | 1.7 | 0.00 | 0.00 | 0.00 | 47 | 1013.5 |
| 20260504190242 | 77 | 17 | 1.7 | 1.7 | 0.00 | 0.00 | 0.00 | 49 | 1013.5 |
| 20260504185738 | 77 | 36 | 3.5 | 6.1 | 0.00 | 0.00 | 0.00 | 46 | 1013.8 |
| 20260504185235 | 76 | 278 | 0.9 | 1.7 | 0.00 | 0.00 | 0.00 | 51 | 1013.8 |
| 20260504184731 | 75 | 335 | 3.5 | 4.3 | 0.00 | 0.00 | 0.00 | 48 | 1013.8 |
| 20260504184227 | 76 | 337 | 3.5 | 4.3 | 0.00 | 0.00 | 0.00 | 46 | 1013.8 |
| 20260504183723 | 76 | 324 | 1.7 | 2.6 | 0.00 | 0.00 | 0.00 | 46 | 1013.6 |
| 20260504183220 | 77 | 320 | 0.0 | 0.0 | 0.00 | 0.00 | 0.00 | 50 | 1013.9 |
| 20260504182718 | 75 | 316 | 0.0 | 0.0 | 0.00 | 0.00 | 0.00 | 49 | 1013.9 |
| 20260504182215 | 75 | 333 | 3.5 | 4.3 | 0.00 | 0.00 | 0.00 | 50 | 1013.8 |
| 20260504181713 | 75 | 318 | 3.5 | 4.3 | 0.00 | 0.00 | 0.00 | 51 | 1013.9 |
| 20260504181210 | 75 | 326 | 2.6 | 2.6 | 0.00 | 0.00 | 0.00 | 53 | 1014.1 |
| 20260504180709 | 75 | 308 | 1.7 | 1.7 | 0.00 | 0.00 | 0.00 | 53 | 1014.1 |
| 20260504180207 | 75 | 310 | 1.7 | 2.6 | 0.00 | 0.00 | 0.00 | 49 | 1013.9 |
| 20260504175704 | 75 | 310 | 1.7 | 1.7 | 0.00 | 0.00 | 0.00 | 50 | 1013.9 |
| 20260504175201 | 76 | 305 | 0.0 | 0.0 | 0.00 | 0.00 | 0.00 | 53 | 1014.1 |
| 20260504174659 | 75 | 338 | 4.3 | 6.1 | 0.00 | 0.00 | 0.00 | 49 | 1013.8 |
| 20260504174156 | 74 | 300 | 0.9 | 1.7 | 0.00 | 0.00 | 0.00 | 52 | 1013.9 |
| 20260504173653 | 74 | 344 | 3.5 | 4.3 | 0.00 | 0.00 | 0.00 | 50 | 1013.9 |
| 20260504173150 | 73 | 298 | 1.7 | 2.6 | 0.00 | 0.00 | 0.00 | 57 | 1013.9 |
| 20260504172647 | 73 | 274 | 1.7 | 2.6 | 0.00 | 0.00 | 0.00 | 54 | 1013.8 |
| 20260504172143 | 72 | 311 | 0.0 | 0.0 | 0.00 | 0.00 | 0.00 | 55 | 1014.1 |
| 20260504171639 | 72 | 332 | 1.7 | 2.6 | 0.00 | 0.00 | 0.00 | 54 | 1013.7 |
| 20260504171137 | 72 | 312 | 1.7 | 1.7 | 0.00 | 0.00 | 0.00 | 53 | 1013.9 |
| 20260504170633 | 72 | 322 | 4.3 | 6.1 | 0.00 | 0.00 | 0.00 | 56 | 1013.7 |
| 20260504170131 | 71 | 321 | 0.0 | 1.7 | 0.00 | 0.00 | 0.00 | 54 | 1013.7 |
| 20260504151016 | 64 | 267 | 0.9 | 1.7 | 0.00 | 0.00 | 0.00 | 54 | 1013.2 |
| 20260504150513 | 63 | 282 | 0.0 | 1.7 | 0.00 | 0.00 | 0.00 | 56 | 1013.2 |
| 20260504140939 | 58 | 269 | 0.9 | 2.6 | 0.00 | 0.00 | 0.00 | 61 | 1012.8 |
| 20260504140435 | 58 | 254 | 1.7 | 4.3 | 0.00 | 0.00 | 0.00 | 62 | 1012.7 |
| 20260504130355 | 56 | 281 | 0.0 | 1.7 | 0.00 | 0.00 | 0.00 | 66 | 1012.3 |